Temperature
14 15 16 16 13 12 14 14 14 14 14 15 15 15 15 14 15 15 15 15 15 15 15 15 15 15 16 16 16 16 16 16 16 16 16 16 15 15 15 15 15 15 15 15 15 15 15 15 15
14 15 15 15 12 13 13 14 14 14 14 15 15 14 14 13 14 14 14 14 15 15 15 15 15 15 15 16 15 15 15 15 15 15 15 15 15 15 15 15 15 15 15 15 15 15 15 15 15
14 14 15 11 12 13 14 14 13 14 15 14 13 14 13 13 13 14 14 14 14 15 15 15 15 15 15 15 15 15 15 15 15 15 15 15 15 15 15 15 15 15 15 15 15 15 15 15 15
14 14 14 11 13 12 14 13 13 13 14 14 13 12 12 13 13 14 14 14 14 14 14 15 15 15 15 15 15 15 15 15 15 15 15 15 15 15 15 15 15 15 14 15 15 15 15 15 15
13 13 11 11 12 12 12 13 13 13 12 13 12 11 12 13 13 13 14 14 14 14 14 14 14 15 15 15 15 15 15 15 15 15 15 15 15 15 15 15 14 14 14 14 14 14 14 14 14
13 11 10 11 12 12 12 13 13 12 12 12 12 11 12 13 13 13 13 14 14 14 14 14 14 14 14 14 15 15 15 15 15 15 15 15 15 15 14 14 14 14 14 14 14 14 14 14 14
11 9 10 11 11 12 13 13 13 11 12 12 13 11 11 12 13 13 13 13 14 14 14 14 14 14 14 14 14 14 14 14 14 14 14 14 14 14 14 14 14 14 14 14 14 13 14 14 13
12 9 10 10 11 12 12 13 13 13 12 13 13 12 12 13 13 13 13 13 13 14 14 14 14 14 14 14 14 14 14 14 14 14 14 14 14 14 14 14 13 13 13 13 13 13 13 13 13
12 9 10 10 11 12 12 12 12 12 12 12 12 13 13 13 13 13 13 13 13 13 13 14 14 14 14 14 14 14 14 14 14 14 14 13 13 13 13 13 13 13 13 13 13 13 13 13 13
11 9 10 10 11 11 11 12 12 12 11 11 12 13 13 13 13 13 13 13 13 13 13 13 13 13 13 13 13 13 13 13 13 13 13 13 13 13 13 13 13 13 13 13 13 13 13 13 13
10 10 10 11 11 12 11 11 12 12 11 12 13 13 13 13 12 13 13 13 13 13 13 13 13 13 13 13 13 13 13 13 13 13 13 13 13 13 13 13 13 13 13 13 13 12 12 12 12
9 10 10 11 11 11 11 11 11 11 12 13 14 13 13 13 13 12 12 12 12 12 13 13 13 13 13 13 13 13 13 13 13 13 13 13 12 12 12 12 12 12 12 12 12 12 12 12 12
9 9 10 10 11 11 11 10 11 11 12 13 13 13 13 12 12 12 12 12 12 12 12 12 12 12 13 13 13 13 13 13 12 12 12 12 12 12 12 12 12 12 12 12 12 12 12 12 12
9 9 10 10 11 11 10 10 10 11 12 12 12 12 12 12 12 12 12 12 12 12 12 12 12 12 12 12 12 12 12 12 12 12 12 12 12 12 12 12 12 12 12 11 11 11 12 11 11
10 9 9 9 10 10 11 10 10 11 11 11 11 12 12 12 12 12 12 12 12 12 12 12 12 12 12 12 12 12 12 12 12 12 11 11 11 11 11 11 11 11 11 11 11 11 11 11 11
9 9 9 9 9 10 11 10 10 10 11 11 11 11 11 11 11 12 12 12 12 12 12 12 12 12 12 12 12 12 12 11 11 11 11 11 11 11 11 11 11 11 11 11 11 11 11 11 11
8 8 9 9 9 9 10 10 9 10 10 10 10 11 11 11 11 11 11 11 11 11 11 11 11 11 11 11 11 11 11 11 11 11 11 11 11 11 10 10 10 10 10 10 10 10 10 10 10
8 8 9 9 9 9 9 9 8 9 9 9 10 10 10 11 11 11 11 11 11 11 11 11 11 11 11 11 11 11 11 11 11 10 10 10 10 10 10 10 10 10 10 10 10 10 10 10 9
8 8 8 8 8 9 8 8 8 9 9 9 9 10 10 11 11 11 11 11 11 11 11 11 11 11 11 10 11 10 10 10 10 10 10 10 10 10 10 9 9 9 9 9 9 9 9 9 9
8 8 8 8 8 9 8 8 8 8 8 9 9 10 10 11 11 11 11 11 11 11 11 11 11 10 10 10 10 10 10 10 10 10 9 9 9 9 9 9 9 9 9 9 9 9 9 8 8
8 8 8 8 8 8 9 9 9 9 9 9 9 10 10 10 11 11 11 11 11 11 11 11 10 10 10 10 10 10 10 9 9 9 9 9 9 9 8 8 8 8 8 8 8 8 8 8 8
8 8 8 8 8 7 8 8 9 8 8 8 9 9 10 10 10 11 11 11 11 11 10 10 10 10 10 9 9 9 9 9 9 9 9 9 8 8 8 8 8 8 8 8 8 7 7 7 7
7 7 7 7 7 7 7 7 7 8 9 9 8 9 10 10 10 10 10 10 10 10 10 10 10 9 9 9 9 9 9 9 9 8 8 8 8 8 8 8 8 7 7 7 7 7 7 7 6
7 7 6 5 6 8 8 7 8 7 8 8 8 9 10 10 10 10 10 10 10 10 10 10 9 9 9 9 9 9 8 8 8 8 8 8 8 8 8 7 7 7 7 7 7 7 6 6 6
7 7 7 7 6 7 7 7 7 7 8 8 8 9 10 10 10 10 10 10 10 10 10 9 9 9 9 9 8 8 8 8 8 8 8 8 8 8 7 7 7 7 7 6 6 6 6 6 5
7 7 7 9 8 7 6 6 7 8 7 8 8 9 9 10 10 10 10 9 9 9 9 9 9 9 9 8 8 8 8 8 8 8 7 7 7 7 7 7 6 6 6 6 6 5 5 5 5
7 6 6 5 6 6 6 6 7 7 7 7 8 8 9 9 9 9 9 9 9 9 9 9 9 9 8 8 8 8 8 7 7 7 7 7 7 7 6 6 6 6 6 5 5 5 5 4 4
7 5 4 6 8 8 8 7 7 8 7 7 7 8 9 9 9 9 9 9 9 9 8 8 8 8 8 8 8 7 7 7 7 7 7 6 6 6 6 6 6 5 5 5 5 5 4 4 4
6 6 5 4 5 7 7 8 7 7 6 6 6 8 9 9 9 9 9 8 8 8 8 8 8 8 7 7 7 7 7 7 6 6 6 6 6 6 6 5 5 5 5 5 4 4 4 4 4
6 6 5 6 6 4 5 6 7 6 6 6 7 8 9 9 9 8 8 8 8 8 8 8 7 7 7 7 7 7 6 6 6 6 6 6 6 6 5 5 5 5 4 4 4 4 4 3 3
Wind_Speed
9 6 3 4 4 2 4 4 3 3 2 0 1 4 7 5 4 4 1 3 5 6 6 8 9 9 10 9 9 9 9 9 9 9 9 9 9 8 8 8 8 8 8 8 8 7 7 7 6
4 2 4 4 4 3 5 4 4 4 4 3 3 4 4 2 2 3 2 3 6 6 6 8 9 10 10 10 9 9 9 9 9 9 9 8 8 8 8 8 8 8 8 8 8 8 7 7 6
2 3 3 3 4 7 5 4 5 2 2 3 3 3 3 3 2 2 2 5 7 6 7 8 10 10 10 9 9 9 9 9 9 8 8 8 8 8 8 8 8 8 8 8 8 8 7 7 6
3 4 4 2 6 5 4 3 4 4 2 3 4 4 2 2 0 2 4 6 7 6 8 9 10 10 10 9 9 9 9 8 8 8 8 8 8 8 8 8 9 9 9 8 8 8 8 7 6
3 4 3 2 5 3 3 2 4 3 2 2 3 4 1 3 3 5 6 7 8 6 8 9 10 9 10 9 8 9 9 9 8 8 8 8 8 8 9 9 9 9 8 8 8 8 8 8 7
3 3 3 5 5 3 2 2 2 2 3 2 4 4 1 1 4 5 6 6 6 7 8 9 10 10 10 9 9 8 9 9 9 9 9 9 9 9 9 9 9 9 9 9 9 9 9 8 8
4 4 5 6 4 3 2 2 4 4 3 4 5 5 2 1 3 5 6 6 7 8 8 9 9 10 10 10 10 9 9 10 9 9 10 10 10 9 10 9 9 9 9 9 9 9 9 9 9
4 5 3 4 6 5 2 1 2 3 3 2 4 6 5 4 4 6 7 7 7 6 6 7 8 9 10 10 10 10 10 10 10 10 10 10 10 10 10 10 10 10 10 10 10 10 9 9 9
3 3 4 7 7 4 2 2 1 1 4 1 0 2 4 9 8 7 6 5 5 5 5 5 6 8 8 9 9 10 10 9 10 10 10 9 9 9 9 10 11 11 11 10 11 11 11 10 10
4 3 6 4 4 4 2 2 3 3 2 1 1 2 6 9 9 8 7 6 4 4 3 4 5 6 7 7 8 9 9 9 9 9 9 9 9 8 8 9 10 11 11 11 11 11 11 10 9
3 4 3 1 2 3 3 2 2 5 3 5 6 7 8 8 8 7 6 5 4 3 3 3 4 5 6 6 6 7 7 8 8 9 8 8 8 8 8 8 9 9 10 10 10 10 10 9 8
3 0 0 1 1 2 3 3 1 2 3 2 6 9 9 9 8 7 6 5 4 4 3 3 3 4 5 5 5 5 5 6 6 7 8 7 6 6 6 6 7 7 7 7 8 7 8 8 8
2 1 1 1 3 2 3 2 1 2 2 3 7 8 8 8 7 5 5 5 4 4 3 2 3 3 4 4 4 4 4 5 5 6 7 7 5 3 5 5 6 7 7 7 6 6 6 6 7
2 2 2 3 2 2 3 1 1 2 2 6 7 7 5 6 6 5 4 5 5 4 4 3 3 3 4 3 3 3 4 5 6 6 7 7 5 4 4 4 5 6 7 7 6 5 5 4 5
2 4 4 4 3 1 3 3 1 1 4 6 5 5 4 3 4 5 4 5 5 4 3 3 3 3 3 3 3 3 3 4 5 5 6 7 6 5 4 3 3 6 7 7 6 6 5 4 4
4 5 3 5 4 3 4 2 1 2 5 5 4 3 3 2 3 3 3 3 4 4 3 2 3 3 3 3 3 3 3 3 4 4 5 6 6 6 5 3 3 6 6 6 3 3 4 4 5
5 3 1 3 4 2 2 2 1 1 4 3 3 3 3 2 1 2 3 3 4 4 4 3 3 3 3 3 3 3 3 3 3 4 4 5 6 6 5 4 4 5 5 4 4 3 3 3 5
2 2 1 1 3 3 2 2 3 1 3 3 3 3 3 3 4 3 2 3 3 3 3 3 2 2 3 2 2 2 2 2 2 3 3 4 4 5 4 3 4 5 3 3 3 3 3 2 4
4 4 2 2 3 2 0 3 6 2 2 4 4 4 4 5 3 2 2 3 3 2 2 2 2 2 2 1 1 1 0 1 1 2 3 3 3 3 3 3 3 3 3 3 3 2 3 3 4
4 4 2 2 3 2 2 5 5 3 4 5 5 5 5 3 2 2 2 2 3 3 3 2 3 2 2 2 2 1 1 0 1 1 2 3 3 3 2 2 1 2 2 4 4 3 2 3 4
4 2 1 0 3 4 3 6 4 2 1 2 3 3 3 5 5 4 3 3 3 3 3 3 3 3 3 3 2 1 1 1 1 1 1 2 2 2 1 1 1 1 1 2 2 2 2 2 2
1 2 1 1 3 3 3 2 6 3 4 3 3 2 3 4 4 4 4 3 4 4 3 2 2 2 2 3 3 3 2 2 2 2 1 2 2 1 1 1 0 0 0 1 2 1 1 0 1
2 1 2 2 2 2 3 1 7 3 3 4 3 2 2 3 3 3 3 3 3 2 2 2 2 2 2 3 4 3 3 3 2 2 2 2 2 2 2 1 1 1 1 1 1 1 1 0 1
2 3 4 4 4 1 2 3 6 4 4 3 2 2 1 1 1 1 0 1 1 0 0 1 2 3 2 3 3 4 5 4 3 3 3 3 2 2 2 2 2 2 1 2 1 1 1 1 1
4 4 4 5 4 4 1 2 8 6 5 4 4 3 2 2 2 1 1 1 0 0 1 1 1 3 2 2 4 5 5 5 5 5 4 3 2 2 3 2 2 2 2 2 1 1 2 2 2
1 3 4 3 4 4 2 5 7 4 3 2 2 2 1 1 1 1 1 1 1 1 1 1 1 2 2 2 3 3 4 3 4 4 4 4 4 4 3 3 3 3 3 3 2 2 2 2 2
3 2 2 4 1 2 5 7 7 1 1 1 2 2 2 1 1 0 1 0 0 1 1 1 1 2 2 2 2 3 3 4 4 4 4 4 4 4 3 3 3 3 3 3 2 3 3 2 3
2 5 4 3 2 3 6 5 5 4 4 2 2 3 2 1 0 1 1 1 1 1 1 1 1 1 2 2 2 2 3 3 4 3 4 4 4 3 3 3 3 3 3 3 3 3 3 3 3
2 3 3 3 3 3 4 7 5 6 5 5 5 4 4 3 2 1 0 1 1 1 1 1 2 2 2 2 2 2 3 2 3 3 4 4 4 4 4 4 4 4 4 4 4 4 4 4 4
2 3 5 3 3 3 3 7 4 4 5 5 5 4 3 2 2 1 0 1 2 2 2 2 2 3 3 2 2 2 3 2 3 4 4 4 4 4 4 4 4 5 5 5 5 5 5 5 5
Wind_Direction
336 351 51 57 65 72 221 224 196 164 168 150 103 120 138 141 157 167 109 108 117 126 123 119 122 117 109 102 95 90 86 82 78 75 70 66 63 60 56 54 52 48 45 42 39 36 33 31 34
340 7 54 68 125 195 244 216 190 185 171 139 71 83 93 99 69 99 106 107 116 118 114 117 114 113 109 104 98 92 86 81 76 72 68 64 61 57 53 50 49 45 42 39 36 33 29 27 28
354 42 86 93 160 193 210 200 188 140 148 122 89 68 109 125 107 125 137 128 108 97 101 114 112 107 107 104 100 93 87 81 75 70 66 63 59 56 52 49 47 44 40 35 31 29 27 25 23
68 52 60 116 206 215 213 195 163 128 84 68 107 91 63 31 43 136 121 122 110 91 97 113 112 108 104 103 100 94 87 80 75 71 67 63 60 56 52 48 46 42 37 32 28 25 23 19 15
66 90 102 198 227 248 251 207 168 127 113 85 110 117 74 4 67 101 111 118 116 100 93 106 111 108 103 98 98 92 85 78 74 71 66 62 60 57 52 48 44 39 34 30 26 23 20 17 11
73 88 140 207 217 261 247 203 150 109 119 123 120 120 147 74 89 103 108 109 109 106 91 97 105 104 101 95 88 87 82 75 71 68 63 59 55 52 47 42 39 34 30 27 24 20 17 13 11
123 128 178 186 182 219 217 144 144 140 148 179 151 127 155 154 116 113 105 101 96 91 87 83 89 93 92 88 83 78 79 74 69 66 64 60 56 52 48 42 36 30 25 21 19 17 16 16 14
133 121 146 182 178 208 175 91 128 143 160 146 144 150 184 187 135 110 100 93 88 79 77 77 79 84 85 83 81 77 74 74 69 65 63 60 56 51 47 41 37 32 27 22 18 16 15 15 14
107 103 189 201 188 196 162 103 39 67 116 91 150 184 181 137 129 117 107 91 84 75 62 70 75 77 84 85 80 76 70 69 67 63 61 57 50 46 43 39 37 34 30 25 22 20 18 16 12
110 169 216 209 196 183 173 152 160 119 113 140 81 62 117 133 137 135 136 135 123 102 80 65 73 79 81 84 75 69 65 62 60 57 56 52 50 46 44 38 36 33 29 25 23 21 19 17 11
137 187 218 227 207 161 148 148 167 142 192 204 189 167 145 144 146 147 150 148 146 130 101 74 71 83 85 81 76 66 62 57 54 53 51 51 47 42 37 32 28 25 24 20 16 18 15 12 8
127 156 198 245 131 140 152 144 151 195 229 218 172 156 152 155 158 162 161 154 141 130 118 97 80 88 85 83 78 71 64 55 48 47 49 50 42 34 28 27 20 20 16 14 14 11 5 5 4
115 117 17 49 85 98 93 95 140 285 303 101 120 132 148 153 153 155 153 147 144 142 137 121 104 95 92 83 74 70 63 58 51 47 47 52 48 35 27 23 19 15 13 11 5 4 1 359 359
119 87 64 31 54 45 101 11 45 286 112 110 128 143 151 151 146 142 151 157 162 157 153 138 122 110 107 98 86 73 66 63 54 46 42 49 49 41 34 24 18 12 7 2 358 356 352 349 354
85 71 38 14 29 35 88 11 267 232 122 127 146 151 149 147 147 163 172 168 168 161 151 146 137 115 110 102 92 80 68 68 56 44 42 46 46 43 39 30 20 8 4 2 1 1 1 5 4
55 63 46 344 15 16 110 222 315 116 130 148 168 167 162 159 174 185 177 167 158 149 145 147 129 116 111 108 96 81 70 67 58 48 39 41 43 44 43 36 17 7 8 8 7 8 5 6 1
42 82 62 334 4 30 106 213 302 102 146 177 190 187 179 182 215 207 184 173 162 158 152 146 130 129 120 114 101 86 73 62 51 48 40 33 38 43 46 36 13 11 15 14 8 14 12 0 354
165 126 108 288 342 53 71 271 280 221 175 212 217 213 204 214 233 218 188 174 159 152 149 147 135 132 115 104 88 71 55 39 34 28 25 27 29 40 45 39 19 19 20 13 10 7 10 3 345
136 117 85 318 334 56 18 296 287 271 215 229 234 229 221 233 249 205 180 161 146 152 160 165 159 165 128 109 123 113 304 317 3 1 6 11 16 35 47 40 23 23 23 7 0 3 10 7 356
87 93 64 353 15 49 2 305 287 258 228 221 224 230 223 222 228 211 184 176 182 191 193 190 197 189 166 157 160 157 160 257 257 323 351 356 359 10 32 56 29 17 16 9 7 15 8 3 17
42 114 154 228 358 34 1 327 312 303 285 252 239 232 228 213 214 213 211 211 209 214 209 211 211 204 187 168 129 105 55 359 335 320 308 321 327 341 6 17 26 17 22 350 346 5 26 353 357
53 335 126 78 62 346 39 300 297 306 307 284 266 247 233 226 216 210 212 219 224 230 223 221 212 212 202 174 171 181 203 233 245 248 263 298 314 307 298 298 338 356 347 320 326 14 8 47 333
156 29 64 59 94 20 22 149 288 318 286 279 272 256 241 228 216 218 218 222 225 218 216 222 227 237 220 192 190 197 222 230 250 260 275 283 287 288 276 260 249 261 271 277 299 325 337 191 233
145 55 49 47 65 340 260 176 278 255 241 271 270 254 232 200 178 196 202 179 197 157 219 237 248 264 245 210 201 206 220 234 252 263 267 276 275 272 266 255 242 244 251 258 264 267 268 246 233
57 73 31 6 5 260 281 212 252 261 261 241 231 228 215 149 128 125 129 151 145 340 294 264 256 274 263 221 218 219 220 224 236 248 252 262 268 264 258 242 238 238 242 246 244 242 249 238 235
60 113 147 196 234 283 311 245 259 276 289 261 222 198 164 149 145 155 186 202 265 308 315 301 275 280 289 253 242 234 226 223 237 242 243 248 249 254 248 237 237 241 242 243 229 234 241 234 238
99 100 146 131 152 288 282 287 303 285 326 86 123 134 171 187 175 126 31 33 314 319 291 270 278 297 304 283 259 250 240 233 245 253 247 250 250 254 243 234 237 241 237 230 224 232 238 231 235
100 140 96 117 154 278 296 282 257 248 228 211 189 187 205 198 173 28 30 5 342 300 287 318 284 284 294 296 275 270 258 246 246 247 250 252 254 252 251 247 243 245 241 231 224 234 235 227 236
110 104 106 110 151 172 275 278 233 219 210 207 216 215 210 204 207 211 325 345 346 348 356 354 337 323 313 313 312 300 290 279 263 254 256 255 254 249 245 244 242 243 242 233 224 232 230 232 242
190 178 153 158 223 190 220 270 291 237 228 211 217 224 221 208 202 197 203 14 5 350 337 327 318 308 300 304 307 294 292 294 283 276 273 264 258 255 248 245 244 245 243 234 226 233 232 229 237
Height
1505 1506 1508 1510 1514 1523 1522 1518 1514 1514 1514 1514 1514 1515 1517 1520 1523 1528 1525 1524 1526 1528 1531 1532 1534 1535 1536 1537 1538 1538 1538 1539 1539 1539 1539 1539 1539 1539 1539 1539 1539 1539 1539 1539 1539 1539 1539 1539 1539
1505 1506 1509 1510 1518 1526 1522 1514 1514 1512 1512 1513 1514 1515 1516 1518 1520 1521 1522 1524 1526 1529 1530 1532 1534 1535 1536 1537 1537 1538 1538 1538 1539 1539 1539 1539 1539 1539 1539 1539 1539 1538 1538 1538 1538 1538 1538 1538 1538
1505 1506 1509 1511 1518 1520 1515 1511 1511 1511 1512 1512 1514 1515 1517 1518 1519 1520 1522 1524 1527 1529 1530 1532 1534 1535 1536 1537 1537 1538 1538 1538 1538 1539 1539 1538 1538 1538 1538 1538 1538 1538 1537 1537 1537 1537 1537 1537 1537
1505 1507 1509 1514 1514 1513 1510 1509 1509 1510 1512 1512 1513 1516 1517 1519 1520 1521 1522 1524 1527 1529 1531 1532 1534 1535 1536 1537 1537 1538 1538 1538 1538 1538 1538 1538 1538 1538 1537 1537 1537 1537 1537 1536 1536 1536 1536 1536 1536
1504 1506 1512 1516 1513 1510 1508 1508 1508 1510 1511 1512 1513 1515 1516 1519 1519 1521 1522 1525 1527 1529 1531 1532 1534 1535 1536 1536 1537 1537 1538 1538 1538 1538 1538 1538 1537 1537 1537 1537 1537 1536 1536 1535 1535 1535 1535 1534 1534
1504 1505 1515 1516 1512 1509 1507 1507 1508 1509 1511 1512 1513 1515 1516 1518 1519 1521 1523 1525 1527 1529 1530 1532 1534 1535 1535 1536 1537 1537 1537 1538 1538 1538 1538 1537 1537 1537 1536 1536 1536 1535 1535 1535 1534 1534 1533 1533 1533
1503 1508 1511 1511 1512 1509 1507 1507 1508 1509 1510 1512 1512 1514 1516 1518 1519 1521 1523 1525 1527 1529 1530 1532 1533 1534 1535 1536 1536 1537 1537 1537 1537 1537 1537 1537 1537 1536 1536 1536 1535 1535 1534 1534 1533 1532 1532 1532 1531
1501 1506 1510 1512 1511 1508 1506 1506 1507 1508 1509 1511 1512 1513 1514 1516 1518 1521 1523 1525 1527 1528 1530 1531 1533 1534 1535 1535 1536 1536 1537 1537 1537 1537 1537 1537 1536 1536 1535 1535 1534 1534 1533 1533 1532 1531 1531 1530 1530
1501 1509 1511 1509 1507 1505 1505 1506 1507 1508 1509 1510 1511 1512 1513 1515 1517 1520 1522 1525 1526 1528 1530 1531 1532 1533 1534 1535 1535 1536 1536 1537 1537 1537 1536 1536 1536 1535 1535 1534 1533 1533 1532 1531 1531 1530 1529 1529 1528
1501 1508 1505 1503 1502 1503 1503 1504 1506 1508 1509 1509 1510 1511 1512 1514 1516 1519 1521 1523 1525 1527 1529 1530 1532 1533 1534 1534 1535 1535 1536 1536 1536 1536 1536 1536 1535 1534 1534 1533 1532 1532 1531 1530 1529 1529 1528 1527 1527
1499 1503 1501 1501 1500 1501 1502 1504 1505 1506 1508 1507 1507 1508 1511 1513 1516 1518 1521 1523 1525 1527 1528 1529 1531 1532 1533 1534 1534 1535 1535 1535 1536 1535 1535 1535 1534 1534 1533 1532 1531 1531 1530 1529 1528 1527 1526 1526 1525
1500 1501 1500 1500 1500 1501 1502 1503 1505 1505 1506 1506 1507 1508 1510 1512 1515 1518 1521 1523 1525 1526 1527 1529 1530 1531 1532 1533 1533 1534 1534 1534 1535 1535 1534 1534 1533 1533 1532 1531 1530 1529 1528 1527 1526 1526 1525 1524 1523
1499 1500 1500 1500 1500 1501 1502 1503 1505 1505 1505 1505 1507 1508 1510 1512 1515 1518 1521 1522 1524 1526 1527 1528 1529 1530 1531 1532 1532 1533 1533 1533 1533 1533 1533 1533 1532 1532 1531 1530 1529 1528 1527 1526 1525 1524 1523 1522 1521
1500 1500 1501 1501 1501 1501 1502 1504 1505 1504 1505 1505 1507 1508 1510 1512 1514 1517 1519 1521 1523 1525 1526 1527 1528 1529 1530 1531 1531 1532 1532 1532 1532 1532 1532 1531 1531 1530 1530 1529 1528 1527 1526 1525 1524 1523 1521 1520 1519
1500 1502 1503 1503 1502 1502 1503 1506 1506 1504 1505 1506 1507 1509 1511 1512 1514 1516 1518 1520 1522 1524 1525 1526 1527 1528 1529 1530 1530 1530 1530 1531 1531 1531 1530 1530 1529 1529 1528 1528 1527 1526 1525 1524 1522 1521 1520 1519 1517
1501 1505 1509 1506 1503 1503 1507 1509 1505 1505 1505 1506 1508 1509 1511 1512 1514 1516 1518 1519 1521 1523 1524 1526 1527 1527 1528 1528 1529 1529 1529 1529 1529 1529 1529 1528 1528 1527 1527 1526 1525 1524 1523 1522 1521 1519 1518 1517 1515
1508 1512 1511 1509 1505 1505 1506 1508 1505 1506 1506 1506 1507 1509 1510 1512 1514 1515 1517 1518 1520 1522 1523 1524 1525 1526 1527 1527 1527 1527 1528 1528 1528 1528 1527 1527 1527 1526 1525 1525 1524 1523 1521 1520 1519 1518 1516 1515 1513
1512 1512 1512 1511 1508 1507 1508 1508 1506 1506 1506 1506 1507 1508 1509 1511 1513 1515 1516 1518 1519 1521 1522 1523 1524 1525 1525 1525 1526 1526 1526 1526 1526 1526 1526 1526 1525 1524 1524 1523 1522 1521 1520 1519 1518 1516 1515 1513 1512
1509 1511 1512 1512 1510 1509 1510 1509 1505 1505 1505 1506 1506 1507 1508 1510 1512 1514 1515 1517 1518 1519 1521 1521 1522 1523 1524 1524 1524 1524 1525 1525 1525 1524 1524 1524 1523 1522 1522 1521 1521 1519 1518 1517 1516 1515 1513 1512 1510
1509 1511 1514 1513 1511 1511 1511 1509 1505 1504 1504 1504 1505 1505 1506 1508 1510 1511 1513 1515 1516 1518 1519 1520 1521 1522 1522 1523 1523 1523 1523 1523 1523 1523 1523 1522 1522 1521 1520 1520 1519 1518 1517 1516 1514 1513 1512 1510 1509
1512 1513 1514 1514 1512 1512 1512 1510 1506 1503 1503 1503 1503 1504 1505 1506 1508 1510 1511 1513 1514 1516 1517 1518 1519 1520 1521 1521 1521 1521 1521 1521 1521 1521 1521 1520 1520 1519 1518 1517 1517 1516 1515 1514 1513 1511 1510 1509 1508
1514 1513 1513 1513 1516 1520 1518 1521 1509 1506 1504 1503 1502 1502 1503 1504 1506 1508 1509 1511 1512 1514 1515 1517 1518 1518 1519 1519 1519 1519 1519 1519 1519 1518 1518 1518 1517 1516 1516 1515 1514 1513 1512 1511 1511 1509 1508 1507 1506
1515 1514 1515 1516 1518 1522 1522 1524 1516 1507 1504 1502 1501 1501 1502 1503 1505 1506 1508 1509 1511 1512 1513 1515 1516 1516 1516 1516 1517 1517 1516 1517 1516 1516 1515 1515 1514 1513 1513 1512 1511 1511 1510 1509 1508 1507 1506 1505 1504
1514 1516 1517 1522 1523 1524 1521 1524 1517 1510 1503 1501 1500 1500 1501 1502 1504 1505 1507 1508 1509 1511 1512 1512 1513 1513 1514 1514 1514 1514 1514 1514 1513 1513 1512 1512 1511 1511 1510 1509 1508 1508 1507 1506 1505 1504 1503 1502 1501
1516 1521 1529 1526 1532 1526 1523 1523 1516 1504 1501 1500 1499 1499 1501 1502 1503 1505 1506 1507 1508 1509 1510 1510 1511 1511 1511 1511 1511 1511 1511 1511 1510 1509 1509 1508 1508 1507 1507 1506 1505 1504 1504 1503 1502 1501 1500 1499 1498
1518 1520 1528 1527 1529 1528 1525 1522 1509 1501 1499 1498 1498 1499 1500 1501 1503 1504 1506 1506 1507 1508 1508 1509 1509 1509 1508 1508 1508 1508 1508 1507 1507 1506 1505 1505 1504 1504 1503 1502 1502 1501 1500 1499 1498 1497 1496 1495 1494
1519 1524 1525 1532 1532 1531 1524 1518 1506 1499 1499 1498 1498 1498 1499 1501 1502 1504 1505 1506 1506 1507 1507 1507 1507 1506 1506 1506 1505 1505 1505 1504 1503 1503 1502 1502 1501 1500 1499 1498 1498 1497 1496 1495 1494 1493 1492 1492 1491
1519 1524 1529 1529 1526 1525 1520 1517 1510 1500 1499 1499 1498 1498 1499 1501 1502 1503 1504 1505 1505 1505 1506 1505 1505 1504 1504 1503 1502 1502 1502 1501 1500 1500 1499 1498 1497 1496 1495 1495 1494 1493 1492 1491 1490 1489 1488 1487 1487
1521 1524 1527 1532 1531 1529 1525 1514 1501 1498 1497 1498 1497 1497 1499 1500 1501 1502 1503 1504 1504 1504 1504 1503 1503 1502 1502 1500 1499 1499 1498 1498 1497 1496 1495 1494 1494 1493 1491 1491 1490 1489 1488 1487 1486 1485 1484 1483 1482
1519 1521 1525 1526 1528 1534 1532 1517 1496 1496 1495 1495 1496 1497 1498 1499 1500 1501 1502 1502 1502 1502 1502 1502 1501 1500 1499 1498 1497 1496 1495 1494 1494 1493 1492 1491 1490 1489 1487 1486 1485 1484 1483 1482 1481 1480 1479 1478 1477